"Pseudo-MPEC" for W10509
Created 2023 Nov 25 10:22:14 UT using Find_Orb
Click here for an explanation of pseudo-MPECs
Astrometry: W10509 * C2023 11 1979\
Astrometry*nm7=aif;(8
redacted;%4S]+
click'c]
here*6
O18 W10509 C2023 11 19M3o!PU8i8w^_9O!Cp[u4h3@o
forvWyf+f[`
explanationkS,)PD
O18 W10509 C2023 11 19hiskjkh:lI67#`yX_?=K!#AFV'O,KqPxtj*5\-%D(q^[)CTFH/#j
O18 Station data: (O18) WFST, Lenghu (N38.607601 E93.895220). Orbital elements: W10509 Perihelion 2024 Apr 18.99754 +/- 160 TT = 23:56:27 (JD 2460419.49754) Epoch 2023 Nov 20.0 TT = JDT 2460268.5 Earth MOID: 0.0685 Ma: 0.0610 M 281.70583596 +/- 70 (J2000 ecliptic) AutoNEOCP n 0.51851285 +/- 0.322 Peri. 124.78681 +/- 80 a 1.53448636 +/- 0.636 Node 67.13206 +/- 28 e 0.4749328 +/- 0.261 Incl. 32.10581 +/- 30 P 1.90/694.28d H 20.60 G 0.15 U 12.0 SR q 0.80570836 +/- 0.6 Q 2.26326435 +/- 26.5 From 3 observations 2023 Nov. 19 (15.7 min); mean residual 0".06
Residuals in arcseconds: 231119 O18 .05+ .03+ 231119 O18 .11- .05- 231119 O18 .05+ .03+ Ephemerides (geocentric): Date (UTC) HH RA Dec delta r elong mag " sig PA ---- -------- ------------ ------------ ------ ------ ----- --- -------- 2023 11 25 10 04 20 01.103 +16 38 38.26 .70219 1.6872 174.1 21.3 33d 101 2023 11 25 11 04 19 53.770 +16 39 29.36 .70192 1.6869 174.2 21.3 33d 101 2023 11 25 12 04 19 46.430 +16 40 20.49 .70164 1.6867 174.2 21.3 33d 101 2023 11 25 13 04 19 39.082 +16 41 11.66 .70136 1.6865 174.3 21.3 33d 101 2023 11 25 14 04 19 31.726 +16 42 02.86 .70108 1.6862 174.3 21.3 33d 101 2023 11 25 15 04 19 24.363 +16 42 54.09 .70081 1.6860 174.4 21.3 33d 101 2023 11 25 16 04 19 16.993 +16 43 45.36 .70053 1.6857 174.4 21.3 33d 101 2023 11 25 17 04 19 09.615 +16 44 36.65 .70026 1.6855 174.5 21.3 33d 101 2023 11 25 18 04 19 02.230 +16 45 27.98 .69999 1.6852 174.6 21.3 33d 101 2023 11 25 19 04 18 54.837 +16 46 19.35 .69971 1.6850 174.6 21.3 33d 101 2023 11 25 20 04 18 47.437 +16 47 10.74 .69944 1.6847 174.7 21.3 33d 101 2023 11 25 21 04 18 40.030 +16 48 02.17 .69917 1.6845 174.7 21.3 33d 101 2023 11 25 22 04 18 32.615 +16 48 53.63 .69890 1.6843 174.8 21.3 33d 101 2023 11 25 23 04 18 25.193 +16 49 45.12 .69863 1.6840 174.8 21.3 33d 101 2023 11 26 00 04 18 17.763 +16 50 36.64 .69836 1.6838 174.9 21.3 33d 101 2023 11 26 01 04 18 10.326 +16 51 28.19 .69809 1.6835 174.9 21.3 33d 101 2023 11 26 02 04 18 02.882 +16 52 19.78 .69782 1.6833 175.0 21.3 33d 101 2023 11 26 03 04 17 55.431 +16 53 11.40 .69755 1.6830 175.0 21.2 33d 101 2023 11 26 04 04 17 47.972 +16 54 03.04 .69728 1.6828 175.1 21.2 33d 101 2023 11 26 05 04 17 40.506 +16 54 54.72 .69701 1.6825 175.1 21.2 33d 101 2023 11 26 06 04 17 33.032 +16 55 46.44 .69674 1.6823 175.2 21.2 33d 101 2023 11 26 07 04 17 25.551 +16 56 38.18 .69648 1.6820 175.2 21.2 33d 101 2023 11 26 08 04 17 18.063 +16 57 29.95 .69621 1.6818 175.3 21.2 33d 101 2023 11 26 09 04 17 10.568 +16 58 21.75 .69595 1.6816 175.3 21.2 33d 101 2023 11 26 10 04 17 03.066 +16 59 13.59 .69568 1.6813 175.3 21.2 33d 101 2023 11 26 11 04 16 55.556 +17 00 05.45 .69542 1.6811 175.4 21.2 33d 101 2023 11 26 12 04 16 48.039 +17 00 57.35 .69515 1.6808 175.4 21.2 33d 101 2023 11 26 13 04 16 40.515 +17 01 49.28 .69489 1.6806 175.5 21.2 33d 101 2023 11 26 14 04 16 32.984 +17 02 41.23 .69463 1.6803 175.5 21.2 33d 101 2023 11 26 15 04 16 25.445 +17 03 33.22 .69437 1.6801 175.6 21.2 33d 101 2023 11 26 16 04 16 17.899 +17 04 25.24 .69411 1.6798 175.6 21.2 33d 101 2023 11 26 17 04 16 10.347 +17 05 17.28 .69385 1.6796 175.6 21.2 33d 101 2023 11 26 18 04 16 02.787 +17 06 09.36 .69359 1.6793 175.7 21.2 33d 101 2023 11 26 19 04 15 55.219 +17 07 01.46 .69333 1.6791 175.7 21.2 33d 101 2023 11 26 20 04 15 47.645 +17 07 53.60 .69307 1.6788 175.8 21.2 33d 101 2023 11 26 21 04 15 40.064 +17 08 45.77 .69281 1.6786 175.8 21.2 33d 101 2023 11 26 22 04 15 32.475 +17 09 37.96 .69255 1.6784 175.8 21.2 33d 101 2023 11 26 23 04 15 24.880 +17 10 30.19 .69229 1.6781 175.9 21.2 33d 101 2023 11 27 00 04 15 17.277 +17 11 22.44 .69204 1.6779 175.9 21.2 33d 101 2023 11 27 01 04 15 09.668 +17 12 14.72 .69178 1.6776 175.9 21.2 33d 101 2023 11 27 02 04 15 02.051 +17 13 07.03 .69153 1.6774 176.0 21.2 33d 101 2023 11 27 03 04 14 54.427 +17 13 59.37 .69127 1.6771 176.0 21.2 33d 101 2023 11 27 04 04 14 46.796 +17 14 51.74 .69102 1.6769 176.0 21.2 33d 101 2023 11 27 05 04 14 39.159 +17 15 44.14 .69076 1.6766 176.1 21.2 33d 101 2023 11 27 06 04 14 31.514 +17 16 36.57 .69051 1.6764 176.1 21.2 33d 101 2023 11 27 07 04 14 23.862 +17 17 29.02 .69026 1.6761 176.1 21.2 33d 101 2023 11 27 08 04 14 16.203 +17 18 21.50 .69001 1.6759 176.1 21.2 33d 101 2023 11 27 09 04 14 08.538 +17 19 14.01 .68975 1.6756 176.2 21.2 33d 101